Location: eljas
(40.1958°N, 6.8661°W)
Time: 01:48:51
(UTC+02:00)

Amateur Radio Satellites - All Passes

Search period start: 30 September 2016 01:18
Search period end: 01 October 2016 01:18
Location: eljas, 40.1958°N, 6.8661°W

Satellite Date Start Highest point End Downlink Frequencies (MHz)
Time Altitude Azimuth
JAS-2 30 Sep 01:25:23 01:32:12 32° 92° (E) 01:38:39 435.910
SPROUT 30 Sep 01:26:52 01:30:47 37° 71° (ENE) 01:34:43 437.525
DUCHIFAT 1 30 Sep 01:27:49 01:31:15 24° 95° (E) 01:34:40 145.980
QB50P1 30 Sep 01:31:54 01:35:39 31° 97° (E) 01:39:25 145.935-145.965
TIGRISAT 30 Sep 01:37:04 01:40:57 31° 290° (WNW) 01:44:54 435.000
UKube-1 30 Sep 01:44:39 01:48:52 54° 73° (ENE) 01:53:06 .
POPSAT HIP 1 30 Sep 01:45:25 01:49:27 43° 99° (E) 01:53:29 437.405
AISAT 30 Sep 01:48:30 01:52:55 62° 259° (W) 01:57:20 437.250
AUBIESAT-1 30 Sep 01:50:05 01:54:07 78° 253° (WSW) 01:57:53 437.475
SO-50 30 Sep 01:50:33 01:55:04 63° 241° (WSW) 01:59:27 436.795
50 SAT 30 Sep 01:50:45 01:54:19 56° 260° (W) 01:57:56 437.505
BEESAT 3 30 Sep 01:50:59 01:54:36 39° 116° (ESE) 01:58:18 437.485
NANOSAT C BR1 30 Sep 02:00:14 02:04:25 63° 101° (ESE) 02:08:35 145.865
ISS 30 Sep 02:04:29 02:06:31 15° 16° (NNE) 02:08:33 145.825
DX 1 30 Sep 02:17:10 02:21:25 49° 260° (W) 02:25:40 434.975-435.025
UNISAT 6 30 Sep 02:20:28 02:21:54 11° 297° (WNW) 02:23:20 437.425
QB50P2 30 Sep 02:25:40 02:29:49 57° 286° (WNW) 02:33:56 145.880/145.840
POLYITAN 1 30 Sep 02:27:51 02:31:59 57° 286° (WNW) 02:36:08 437.675
M-CUBED/EXP-1 PRIME 30 Sep 02:30:15 02:33:25 21° 258° (WSW) 02:36:25 437.505
CUBEBUG 1 30 Sep 02:32:41 02:35:37 17° 267° (W) 02:38:35 437.445
VELOX 1 30 Sep 02:33:06 02:36:34 22° 265° (W) 02:40:03 145.980
SWISSCUBE 30 Sep 02:35:30 02:36:37 11° 60° (ENE) 02:37:44 437.505
TISAT 1 30 Sep 02:39:49 02:43:50 47° 73° (ENE) 02:47:52 437.305
BEESAT 30 Sep 02:47:08 02:49:16 13° 61° (ENE) 02:51:24 436.000
BEESAT 2 30 Sep 02:50:18 02:54:14 89° 270° (W) 02:58:14 435.950
Cosmos 2491 30 Sep 02:55:39 03:03:56 42° 74° (ENE) 03:12:07 435.465 / 435.565
BUGSAT 1 30 Sep 02:56:52 03:00:54 77° 284° (WNW) 03:04:56 437.445
DUCHIFAT 1 30 Sep 03:03:22 03:06:53 27° 291° (WNW) 03:10:24 145.980
SPROUT 30 Sep 03:03:55 03:06:50 18° 267° (W) 03:09:46 437.525
QB50P1 30 Sep 03:08:02 03:11:14 21° 293° (WNW) 03:14:26 145.935-145.965
Oscar 19 30 Sep 03:08:45 03:13:02 26° 95° (E) 03:17:16 437.125/150
JAS-2 30 Sep 03:09:50 03:17:27 55° 291° (WNW) 03:24:39 435.910
POPSAT HIP 1 30 Sep 03:22:19 03:24:53 16° 295° (WNW) 03:27:26 437.405
UKube-1 30 Sep 03:23:15 03:25:13 13° 268° (W) 03:27:11 .
BEESAT 3 30 Sep 03:29:32 03:32:25 19° 314° (NW) 03:35:19 437.485
RS-15 30 Sep 03:31:48 03:41:21 25° 19° (NNE) 03:50:52 29.354- 29.394
NANOSAT C BR1 30 Sep 03:38:11 03:39:36 11° 297° (WNW) 03:41:01 145.865
ISS 30 Sep 03:40:17 03:43:32 58° 34° (NE) 03:46:47 145.825
YUBILEINY 30 Sep 03:53:46 04:01:44 41° 87° (E) 04:09:41 435.215
AIST 2 30 Sep 03:54:40 03:56:48 14° 109° (ESE) 03:58:56 435.215
MOZHAYETS 4 30 Sep 03:56:51 03:57:26 10° 61° (ENE) 03:58:02
ITUPSAT 1 30 Sep 03:57:02 04:01:44 63° 73° (ENE) 04:06:28 437.325
ITAMSAT 1 30 Sep 04:08:32 04:10:13 11° 89° (E) 04:11:53 435.822/435.867
SWISSCUBE 30 Sep 04:08:55 04:13:40 86° 256° (WSW) 04:18:28 437.505
TISAT 1 30 Sep 04:17:38 04:19:44 13° 268° (W) 04:21:50 437.305
AO-7 30 Sep 04:19:13 04:20:15 10° 87° (E) 04:21:17 29.400- 29.500
BEESAT 30 Sep 04:21:42 04:26:26 72° 258° (WSW) 04:31:12 436.000
Gurwin Techsat 1B 30 Sep 04:22:23 04:27:41 63° 101° (ESE) 04:32:56 435.225
BEESAT 2 30 Sep 04:31:30 04:32:40 11° 320° (NW) 04:33:50 435.950
Oscar 19 30 Sep 04:47:43 04:52:23 36° 291° (WNW) 04:57:02 437.125/150
Cosmos 2491 30 Sep 04:52:36 05:00:42 42° 273° (W) 05:08:45 435.465 / 435.565
JAS-2 30 Sep 04:58:26 05:00:40 11° 310° (NW) 05:02:55 435.910
ISS 30 Sep 05:17:47 05:19:42 15° 230° (SW) 05:21:37 145.825
CUBESAT XI-V 30 Sep 05:21:30 05:22:50 11° 61° (ENE) 05:24:11 437.345
Cosmos 2504 30 Sep 05:22:35 05:29:45 56° 92° (E) 05:36:42 435.465 / 435.565
MOZHAYETS 4 30 Sep 05:29:19 05:33:52 84° 255° (WSW) 05:38:30
AIST 2 30 Sep 05:30:49 05:34:48 51° 305° (NW) 05:38:52 435.215
ITUPSAT 1 30 Sep 05:37:47 05:39:58 13° 269° (W) 05:42:11 437.325
KKS-1 30 Sep 05:39:10 05:43:37 82° 74° (ENE) 05:48:05 437.445
PCSat 30 Sep 05:40:27 05:45:48 67° 115° (ESE) 05:51:12 145.827
CUSAT 1 30 Sep 05:40:29 05:41:26 10° 52° (NE) 05:42:22 437.405
ITAMSAT 1 30 Sep 05:45:00 05:50:15 81° 285° (WNW) 05:55:29 435.822/435.867
RS-15 30 Sep 05:45:12 05:57:25 58° 49° (NE) 06:09:19 29.354- 29.394
YUBILEINY 30 Sep 05:50:11 05:58:25 43° 286° (WNW) 06:06:40 435.215
AO-85 30 Sep 05:52:43 05:54:52 14° 40° (NE) 05:56:57 145.980
Gurwin Techsat 1B 30 Sep 06:03:43 06:07:05 17° 298° (WNW) 06:10:28 435.225
AO-7 30 Sep 06:06:12 06:14:28 66° 105° (ESE) 06:22:41 29.400- 29.500
STARS 30 Sep 06:06:54 06:11:16 78° 76° (ENE) 06:15:40 437.465
HORYU 2 30 Sep 06:51:27 06:54:56 22° 95° (E) 06:58:26 437.375
CUBESAT XI-V 30 Sep 06:54:48 06:59:30 82° 258° (WSW) 07:04:16 437.345
AIST 1 30 Sep 06:55:52 07:00:15 87° 277° (W) 07:04:39
Cosmos 2504 30 Sep 07:17:39 07:23:29 25° 290° (WNW) 07:29:15 435.465 / 435.565
CUSAT 1 30 Sep 07:18:00 07:25:30 56° 75° (ENE) 07:31:38 437.405
PCSat 30 Sep 07:25:44 07:29:42 20° 314° (NW) 07:33:41 145.827
DANDE 30 Sep 07:26:51 07:34:19 34° 68° (ENE) 07:41:13 436.750
ITAMSAT 1 30 Sep 07:27:48 07:28:51 11° 302° (WNW) 07:29:54 435.822/435.867
GOMX 1 30 Sep 07:29:55 07:31:36 12° 89° (E) 07:33:14 467.674
O/OREOS (USA 219) 30 Sep 07:30:21 07:32:49 15° 99° (E) 07:35:18 437.305
AO-85 30 Sep 07:31:44 07:35:50 70° 240° (WSW) 07:39:42 145.980
NOAA 15 30 Sep 07:37:47 07:41:33 19° 93° (E) 07:45:17 137.62
BRITE-PL 30 Sep 07:49:57 07:54:37 56° 99° (E) 07:58:54 437.365/2234.400
RS-15 30 Sep 07:58:16 08:09:39 46° 252° (WSW) 08:20:47 29.354- 29.394
AO-7 30 Sep 07:59:50 08:06:37 29° 303° (WNW) 08:13:24 29.400- 29.500
CUTE-I 30 Sep 08:00:51 08:05:20 27° 95° (E) 08:09:49 437.470
Cubesat XI-IV 30 Sep 08:01:26 08:05:56 27° 95° (E) 08:10:25 437.490
LilacSat-2 30 Sep 08:06:46 08:10:06 27° 96° (E) 08:13:24 437.200
GONETS M04 30 Sep 08:22:25 08:25:30 12° 74° (ENE) 08:28:34
HORYU 2 30 Sep 08:27:32 08:31:31 33° 291° (WNW) 08:35:30 437.375
HO-68 30 Sep 08:41:45 08:42:58 10° 87° (E) 08:44:10 435.675
STRAND 1 30 Sep 08:51:41 08:56:45 78° 76° (ENE) 09:01:53 437.568
NOAA 18 30 Sep 09:00:30 09:05:59 73° 104° (ESE) 09:11:27 137.9125
CUSAT 1 30 Sep 09:00:55 09:06:50 26° 277° (W) 09:11:56 437.405
GOMX 1 30 Sep 09:05:52 09:10:07 52° 287° (WNW) 09:14:09 467.674
O/OREOS (USA 219) 30 Sep 09:07:16 09:11:43 52° 295° (WNW) 09:16:13 437.305
DANDE 30 Sep 09:09:19 09:17:28 56° 268° (W) 09:24:49 436.750
DOVE 4 30 Sep 09:15:23 09:19:34 79° 102° (ESE) 09:23:42 437.250
NOAA 15 30 Sep 09:16:28 09:21:35 51° 289° (WNW) 09:26:40 137.62
BRITE-PL 30 Sep 09:29:57 09:32:30 15° 298° (WNW) 09:34:58 437.365/2234.400
CUTE-I 30 Sep 09:40:32 09:45:27 38° 291° (WNW) 09:50:21 437.470
Cubesat XI-IV 30 Sep 09:41:08 09:46:03 38° 291° (WNW) 09:50:58 437.490
LilacSat-2 30 Sep 09:41:23 09:44:13 20° 291° (WNW) 09:47:04 437.200
SEEDS 30 Sep 09:44:54 09:48:04 20° 94° (E) 09:51:12 437.485
CUTE 1.7 + AOD 2 30 Sep 09:47:17 09:51:07 31° 96° (E) 09:54:56 437.475
CANX-2 30 Sep 09:48:53 09:52:54 37° 98° (E) 09:56:53 2200.000
AAUSAT CUBESAT 2 30 Sep 10:01:08 10:03:43 16° 92° (E) 10:06:17 437.432
BEESAT 3 30 Sep 10:08:44 10:11:53 22° 48° (NE) 10:15:00 437.485
CINEMA 3 30 Sep 10:10:08 10:14:21 80° 102° (ESE) 10:18:39 145.822/145.860
GONETS M04 30 Sep 10:11:49 10:20:35 72° 93° (E) 10:29:23
Cosmos 2499 30 Sep 10:19:01 10:26:04 66° 93° (E) 10:33:03 435.465 / 435.565
HO-68 30 Sep 10:24:39 10:31:49 72° 104° (ESE) 10:38:56 435.675
PRISM 30 Sep 10:29:32 10:33:41 79° 76° (ENE) 10:37:53 437.425
STRAND 1 30 Sep 10:34:51 10:36:31 11° 271° (W) 10:38:10 437.568
ANTELSAT 30 Sep 10:41:00 10:42:52 13° 64° (ENE) 10:44:45 437.575/2403.000
NOAA 18 30 Sep 10:42:49 10:46:00 16° 300° (WNW) 10:49:11 137.9125
COMPASS 1 30 Sep 10:46:32 10:50:46 70° 102° (ESE) 10:54:57 437.405
PHONESAT 2.4 30 Sep 10:49:58 10:51:55 17° 150° (SSE) 10:53:52 2401.200-2431.200
FUNcube-1 30 Sep 10:55:37 10:59:15 25° 95° (E) 11:02:56 145.935
TIGRISAT 30 Sep 10:59:33 11:02:33 19° 66° (ENE) 11:05:33 435.000
CUBEBUG 2 30 Sep 11:01:35 11:05:55 79° 102° (ESE) 11:10:22 437.445
DELFI C3 30 Sep 11:02:29 11:03:08 10° 90° (E) 11:03:48 145.870
BEESAT 2 30 Sep 11:08:45 11:12:37 43° 54° (NE) 11:16:26 435.950
UWE-3 30 Sep 11:14:37 11:18:58 72° 102° (ESE) 11:23:25 435.000/436.395/437.385
SEEDS 30 Sep 11:19:59 11:23:49 33° 289° (WNW) 11:27:38 437.485
CUTE 1.7 + AOD 2 30 Sep 11:23:26 11:26:47 22° 292° (WNW) 11:30:06 437.475
CANX-2 30 Sep 11:25:27 11:28:28 19° 293° (WNW) 11:31:29 2200.000
Oscar 11 30 Sep 11:32:00 11:36:22 67° 102° (ESE) 11:40:41 145.826/435.025
AAUSAT CUBESAT 2 30 Sep 11:35:25 11:39:22 40° 288° (WNW) 11:43:17 437.432
ZACube-1 30 Sep 11:38:30 11:42:52 83° 100° (E) 11:47:20 437.345
HUMSAT D 30 Sep 11:39:00 11:41:33 15° 92° (E) 11:44:07 437.325/437.525
UNISAT 6 30 Sep 11:39:36 11:43:46 56° 74° (ENE) 11:47:57 437.425
JAS-2 30 Sep 11:39:41 11:42:53 14° 52° (NE) 11:46:13 435.910
BEESAT 3 30 Sep 11:45:58 11:49:36 34° 245° (WSW) 11:53:13 437.485
GONETS M04 30 Sep 12:11:17 12:18:12 25° 294° (WNW) 12:25:11
HO-68 30 Sep 12:13:34 12:18:51 23° 302° (WNW) 12:24:07 435.675
Cosmos 2499 30 Sep 12:14:46 12:19:48 20° 293° (WNW) 12:24:51 435.465 / 435.565
ANTELSAT 30 Sep 12:14:55 12:19:05 57° 260° (W) 12:23:18 437.575/2403.000
AIST 2 30 Sep 12:16:05 12:17:28 11° 40° (NE) 12:18:51 435.215
DUCHIFAT 1 30 Sep 12:19:48 12:22:34 17° 66° (ENE) 12:25:20 145.980
QB50P1 30 Sep 12:24:08 12:27:24 22° 68° (ENE) 12:30:40 145.935-145.965
PHONESAT 2.4 30 Sep 12:24:46 12:27:40 64° 165° (SSE) 12:30:35 2401.200-2431.200
COMPASS 1 30 Sep 12:24:49 12:25:43 11° 297° (WNW) 12:26:36 437.405
FUNcube-1 30 Sep 12:31:43 12:35:26 28° 290° (WNW) 12:39:13 145.935
DELFI C3 30 Sep 12:34:22 12:38:19 56° 286° (WNW) 12:42:13 145.870
TIGRISAT 30 Sep 12:35:05 12:38:59 35° 262° (W) 12:42:55 435.000
POPSAT HIP 1 30 Sep 12:37:26 12:41:06 30° 70° (ENE) 12:44:47 437.405
BEESAT 2 30 Sep 12:47:34 12:50:04 16° 250° (WSW) 12:52:34 435.950
NANOSAT C BR1 30 Sep 12:51:39 12:55:35 42° 72° (ENE) 12:59:33 145.865
UWE-3 30 Sep 12:53:42 12:54:51 11° 297° (WNW) 12:56:00 435.000/436.395/437.385
ESTCUBE 1 30 Sep 12:58:31 13:01:40 18° 93° (E) 13:04:46 437.505/2401.250
Oscar 11 30 Sep 13:10:22 13:11:54 12° 297° (WNW) 13:13:27 145.826/435.025
HUMSAT D 30 Sep 13:13:19 13:17:22 44° 287° (WNW) 13:21:26 437.325/437.525
QB50P2 30 Sep 13:17:14 13:21:26 85° 257° (WSW) 13:25:40 145.880/145.840
UNISAT 6 30 Sep 13:19:21 13:20:51 12° 269° (W) 13:22:20 437.425
POLYITAN 1 30 Sep 13:19:26 13:23:37 84° 257° (WSW) 13:27:50 437.675
JAS-2 30 Sep 13:19:54 13:26:24 70° 72° (ENE) 13:33:45 435.910
50 SAT 30 Sep 13:20:49 13:22:03 11° 92° (E) 13:23:17 437.505
AISAT 30 Sep 13:39:39 13:43:16 25° 96° (E) 13:46:50 437.250
BUGSAT 1 30 Sep 13:45:38 13:49:42 65° 74° (ENE) 13:53:43 437.445
AIST 2 30 Sep 13:52:24 13:56:37 83° 58° (ENE) 14:00:49 435.215
DUCHIFAT 1 30 Sep 13:54:03 13:57:57 38° 262° (W) 14:01:51 145.980
QB50P1 30 Sep 13:59:20 14:03:00 29° 263° (W) 14:06:42 145.935-145.965
PHONESAT 2.4 30 Sep 14:00:48 14:03:45 82° 2° (N) 14:06:42 2401.200-2431.200
YUBILEINY 30 Sep 14:05:12 14:11:00 19° 63° (ENE) 14:16:43 435.215
DX 1 30 Sep 14:06:06 14:09:50 28° 96° (E) 14:13:33 434.975-435.025
Gurwin Techsat 1B 30 Sep 14:06:51 14:09:01 13° 59° (ENE) 14:11:11 435.225
M-CUBED/EXP-1 PRIME 30 Sep 14:09:26 14:11:43 17° 101° (E) 14:14:00 437.505
POPSAT HIP 1 30 Sep 14:13:41 14:16:54 21° 265° (W) 14:20:07 437.405
CUBEBUG 1 30 Sep 14:19:58 14:24:20 90° 89° (E) 14:28:38 437.445
VELOX 1 30 Sep 14:22:26 14:26:51 71° 103° (ESE) 14:31:13 145.980
Oscar 19 30 Sep 14:24:49 14:29:33 37° 69° (ENE) 14:34:17 437.125/150
PCSat 30 Sep 14:28:56 14:34:11 47° 56° (NE) 14:39:22 145.827
NANOSAT C BR1 30 Sep 14:29:01 14:31:30 15° 268° (W) 14:33:59 145.865
ESTCUBE 1 30 Sep 14:34:22 14:38:38 41° 289° (WNW) 14:42:51 437.505/2401.250
SPROUT 30 Sep 14:48:34 14:52:51 79° 104° (ESE) 14:57:05 437.525
50 SAT 30 Sep 14:52:16 14:55:46 42° 287° (WNW) 14:59:12 437.505
AUBIESAT-1 30 Sep 15:03:17 15:06:36 81° 108° (ESE) 15:09:57 437.475
JAS-2 30 Sep 15:07:25 15:12:10 21° 272° (W) 15:17:19 435.910
UKube-1 30 Sep 15:08:00 15:12:19 76° 284° (WNW) 15:16:35 .
AO-7 30 Sep 15:15:37 15:20:59 19° 51° (NE) 15:26:20 29.400- 29.500
Cosmos 2504 30 Sep 15:15:41 15:20:41 19° 66° (ENE) 15:25:52 435.465 / 435.565
AISAT 30 Sep 15:15:56 15:19:41 28° 291° (WNW) 15:23:26 437.250
ITAMSAT 1 30 Sep 15:25:08 15:28:37 19° 62° (ENE) 15:32:07 435.822/435.867
PHONESAT 2.4 30 Sep 15:36:57 15:39:47 46° 198° (SSW) 15:42:37 2401.200-2431.200
DX 1 30 Sep 15:42:22 15:45:54 25° 292° (WNW) 15:49:26 434.975-435.025
Gurwin Techsat 1B 30 Sep 15:42:53 15:48:11 87° 256° (WSW) 15:53:32 435.225
M-CUBED/EXP-1 PRIME 30 Sep 15:43:40 15:46:14 22° 295° (WNW) 15:48:49 437.505
Cosmos 2491 30 Sep 15:55:51 16:04:09 49° 89° (E) 16:12:30 435.465 / 435.565
ITUPSAT 1 30 Sep 15:59:13 16:02:19 17° 92° (E) 16:05:24 437.325
TISAT 1 30 Sep 15:59:25 16:03:36 86° 284° (WNW) 16:07:47 437.305
YUBILEINY 30 Sep 16:00:15 16:09:00 88° 263° (W) 16:17:42 435.215
VELOX 1 30 Sep 16:01:22 16:02:41 11° 299° (WNW) 16:04:01 145.980
SO-50 30 Sep 16:03:37 16:08:16 48° 117° (ESE) 16:12:53 436.795
Oscar 19 30 Sep 16:04:35 16:08:54 26° 265° (W) 16:13:15 437.125/150
SWISSCUBE 30 Sep 16:10:09 16:14:06 25° 95° (E) 16:18:01 437.505
PCSat 30 Sep 16:12:59 16:17:14 24° 253° (WSW) 16:21:27 145.827
BEESAT 30 Sep 16:22:37 16:26:50 30° 97° (E) 16:31:01 436.000
ITAMSAT 1 30 Sep 17:02:34 17:07:37 56° 259° (W) 17:12:44 435.822/435.867
AIST 1 30 Sep 17:04:11 17:07:27 21° 73° (ENE) 17:10:42
AO-7 30 Sep 17:04:13 17:12:32 83° 70° (ENE) 17:20:52 29.400- 29.500
Cosmos 2504 30 Sep 17:07:19 17:14:51 81° 265° (W) 17:22:54 435.465 / 435.565
PHONESAT 2.4 30 Sep 17:14:41 17:15:24 11° 213° (SSW) 17:16:07 2401.200-2431.200
MOZHAYETS 4 30 Sep 17:25:23 17:29:09 24° 94° (E) 17:32:53
KKS-1 30 Sep 17:31:53 17:34:36 16° 93° (E) 17:37:19 437.445
ITUPSAT 1 30 Sep 17:35:45 17:40:24 50° 288° (WNW) 17:45:02 437.325
O/OREOS (USA 219) 30 Sep 17:38:55 17:42:51 27° 59° (ENE) 17:46:45 437.305
SO-50 30 Sep 17:45:05 17:48:58 24° 314° (NW) 17:52:49 436.795
SWISSCUBE 30 Sep 17:47:35 17:51:54 34° 291° (WNW) 17:56:12 437.505
HORYU 2 30 Sep 17:49:18 17:52:30 20° 66° (ENE) 17:55:42 437.375
Cosmos 2491 30 Sep 17:53:14 18:01:09 36° 288° (WNW) 18:09:09 435.465 / 435.565
STARS 30 Sep 17:58:15 18:00:39 14° 92° (E) 18:03:02 437.465
YUBILEINY 30 Sep 17:59:34 18:04:27 17° 283° (WNW) 18:09:20 435.215
BEESAT 30 Sep 18:00:26 18:04:31 28° 292° (WNW) 18:08:35 436.000
GOMX 1 30 Sep 18:36:13 18:39:42 18° 65° (ENE) 18:43:03 467.674
AIST 1 30 Sep 18:41:21 18:45:04 29° 270° (W) 18:48:45
NOAA 18 30 Sep 18:48:11 18:51:46 18° 61° (ENE) 18:55:21 137.9125
LilacSat-2 30 Sep 18:49:39 18:51:29 13° 66° (ENE) 18:53:19 437.200
CUBESAT XI-V 30 Sep 18:52:27 18:56:22 26° 95° (E) 19:00:15 437.345
NOAA 15 30 Sep 18:56:58 19:01:33 30° 67° (ENE) 19:06:09 137.62
BRITE-PL 30 Sep 18:58:30 19:04:08 64° 74° (ENE) 19:09:37 437.365/2234.400
AO-7 30 Sep 19:00:27 19:06:08 20° 268° (W) 19:11:51 29.400- 29.500
MOZHAYETS 4 30 Sep 19:02:10 19:06:19 33° 290° (WNW) 19:10:28
Cosmos 2504 30 Sep 19:03:58 19:07:04 13° 282° (WNW) 19:10:15 435.465 / 435.565
KKS-1 30 Sep 19:07:09 19:11:23 45° 288° (WNW) 19:15:35 437.445
O/OREOS (USA 219) 30 Sep 19:18:13 19:22:13 30° 257° (WSW) 19:26:10 437.305
CUTE-I 30 Sep 19:22:01 19:26:57 41° 69° (ENE) 19:31:55 437.470
Cubesat XI-IV 30 Sep 19:22:45 19:27:42 42° 69° (ENE) 19:32:41 437.490
HORYU 2 30 Sep 19:24:43 19:28:48 37° 262° (W) 19:32:54 437.375
STARS 30 Sep 19:33:03 19:37:15 48° 288° (WNW) 19:41:28 437.465
RS-15 30 Sep 20:08:51 20:18:46 35° 104° (ESE) 20:29:05 29.354- 29.394
Cosmos 2499 30 Sep 20:10:09 20:15:58 23° 69° (ENE) 20:22:02 435.465 / 435.565
GOMX 1 30 Sep 20:12:03 20:17:21 59° 260° (W) 20:22:23 467.674
CUSAT 1 30 Sep 20:16:44 20:22:59 56° 92° (E) 20:30:30 437.405
DOVE 4 30 Sep 20:19:24 20:24:22 75° 76° (ENE) 20:29:04 437.250
ISS 30 Sep 20:20:19 20:22:56 23° 133° (SE) 20:25:34 145.825
LilacSat-2 30 Sep 20:21:50 20:25:24 41° 261° (W) 20:29:00 437.200
GONETS M04 30 Sep 20:23:19 20:31:10 34° 71° (ENE) 20:38:53
NOAA 18 30 Sep 20:26:29 20:31:54 63° 258° (WSW) 20:37:19 137.9125
CUBESAT XI-V 30 Sep 20:29:37 20:33:43 31° 291° (WNW) 20:37:47 437.345
DANDE 30 Sep 20:34:19 20:38:54 28° 83° (E) 20:44:33 436.750
NOAA 15 30 Sep 20:36:27 20:41:13 33° 263° (W) 20:46:01 137.62
SEEDS 30 Sep 20:37:08 20:39:16 14° 64° (ENE) 20:41:25 437.485
BRITE-PL 30 Sep 20:39:15 20:42:55 18° 269° (W) 20:46:35 437.365/2234.400
CUTE 1.7 + AOD 2 30 Sep 20:39:49 20:43:00 21° 67° (ENE) 20:46:13 437.475
CANX-2 30 Sep 20:41:20 20:44:48 25° 69° (ENE) 20:48:17 2200.000
HO-68 30 Sep 20:52:21 20:59:12 50° 67° (ENE) 21:06:03 435.675
AAUSAT CUBESAT 2 30 Sep 20:52:46 20:53:36 11° 63° (ENE) 20:54:26 437.432
CUTE-I 30 Sep 21:02:53 21:07:07 24° 266° (W) 21:11:23 437.470
STRAND 1 30 Sep 21:03:11 21:07:35 27° 96° (E) 21:11:57 437.568
Cubesat XI-IV 30 Sep 21:03:41 21:07:54 24° 266° (W) 21:12:10 437.490
CINEMA 3 30 Sep 21:11:00 21:15:23 67° 76° (ENE) 21:19:38 145.822/145.860
COMPASS 1 30 Sep 21:36:28 21:40:24 41° 72° (ENE) 21:44:22 437.405
AO-85 30 Sep 21:44:16 21:49:15 46° 116° (ESE) 21:53:58 145.980
FUNcube-1 30 Sep 21:51:27 21:54:14 18° 67° (ENE) 21:57:02 145.935
ISS 30 Sep 21:56:13 21:59:16 38° 330° (NNW) 22:02:21 145.825
CUBEBUG 2 30 Sep 21:59:09 22:03:15 58° 75° (ENE) 22:07:20 437.445
CUSAT 1 30 Sep 21:59:47 22:05:29 29° 294° (WNW) 22:12:02 437.405
DOVE 4 30 Sep 22:01:04 22:02:26 11° 270° (W) 22:03:46 437.250
Cosmos 2499 30 Sep 22:02:02 22:09:39 71° 266° (W) 22:17:52 435.465 / 435.565
SEEDS 30 Sep 22:10:24 22:14:30 52° 260° (W) 22:18:39 437.485
UWE-3 30 Sep 22:11:06 22:15:07 51° 74° (ENE) 22:19:09 435.000/436.395/437.385
PRISM 30 Sep 22:14:12 22:15:12 11° 91° (E) 22:16:11 437.425
CUTE 1.7 + AOD 2 30 Sep 22:14:50 22:18:39 32° 264° (W) 22:22:29 437.475
DANDE 30 Sep 22:16:00 22:21:13 43° 289° (WNW) 22:27:57 436.750
CANX-2 30 Sep 22:16:57 22:20:33 26° 265° (W) 22:24:10 2200.000
RS-15 30 Sep 22:18:44 22:30:20 69° 307° (NW) 22:42:35 29.354- 29.394
GONETS M04 30 Sep 22:19:50 22:28:14 52° 271° (W) 22:36:34
AAUSAT CUBESAT 2 30 Sep 22:24:20 22:28:28 69° 258° (WSW) 22:32:40 437.432
Oscar 11 30 Sep 22:25:58 22:30:04 46° 73° (ENE) 22:34:14 145.826/435.025
ZACube-1 30 Sep 22:33:42 22:37:45 57° 74° (ENE) 22:41:51 437.345
HO-68 30 Sep 22:40:57 22:47:06 31° 264° (W) 22:53:17 435.675
STRAND 1 30 Sep 22:42:07 22:46:45 35° 291° (WNW) 22:51:23 437.568
COMPASS 1 30 Sep 23:13:38 23:16:08 15° 268° (W) 23:18:39 437.405
DELFI C3 30 Sep 23:18:59 23:22:58 73° 76° (ENE) 23:26:59 145.870
AO-85 30 Sep 23:25:36 23:29:52 26° 312° (NW) 23:33:56 145.980
FUNcube-1 30 Sep 23:26:25 23:30:12 36° 262° (W) 23:34:02 145.935
UNISAT 6 30 Sep 23:33:19 23:35:15 13° 91° (E) 23:37:12 437.425
ISS 30 Sep 23:34:48 23:36:28 13° 349° (N) 23:38:07 145.825
CUBEBUG 2 30 Sep 23:39:23 23:40:14 11° 270° (W) 23:41:05 437.445
PRISM 30 Sep 23:46:47 23:50:51 57° 286° (WNW) 23:54:52 437.425
UWE-3 30 Sep 23:50:16 23:51:53 12° 269° (W) 23:53:30 435.000/436.395/437.385
ESTCUBE 1 30 Sep 23:57:57 00:00:50 17° 65° (ENE) 00:03:44 437.505/2401.250
Cosmos 2499 30 Sep 23:59:42 00:01:27 11° 283° (WNW) 00:03:12 435.465 / 435.565
HUMSAT D 01 Oct 00:03:29 00:07:32 69° 258° (WSW) 00:11:40 437.325/437.525
Oscar 11 01 Oct 00:04:02 00:06:27 15° 269° (W) 00:08:53 145.826/435.025
ANTELSAT 01 Oct 00:06:55 00:10:49 29° 97° (E) 00:14:47 437.575/2403.000
ZACube-1 01 Oct 00:13:32 00:14:25 11° 270° (W) 00:15:18 437.345
TIGRISAT 01 Oct 00:26:18 00:30:34 45° 99° (E) 00:34:55 435.000
JAS-2 01 Oct 00:33:51 00:36:18 12° 83° (E) 00:38:42 435.910
SO-50 01 Oct 00:35:44 00:39:59 36° 50° (NE) 00:44:07 436.795
RS-15 01 Oct 00:36:01 00:45:42 27° 336° (NNW) 00:55:42 29.354- 29.394
AISAT 01 Oct 00:36:39 00:40:03 22° 67° (ENE) 00:43:27 437.250
M-CUBED/EXP-1 PRIME 01 Oct 00:54:43 00:58:06 26° 66° (ENE) 01:01:17 437.505
DX 1 01 Oct 01:01:13 01:04:42 24° 67° (ENE) 01:08:11 434.975-435.025
QB50P2 01 Oct 01:03:48 01:06:26 16° 93° (E) 01:09:04 145.880/145.840
POLYITAN 1 01 Oct 01:05:58 01:08:37 16° 93° (E) 01:11:15 437.675
UNISAT 6 01 Oct 01:07:55 01:12:17 58° 286° (WNW) 01:16:44 437.425
ISS 01 Oct 01:12:31 01:14:04 13° 10° (N) 01:15:35 145.825
